Location: Caseificio
(44.7500°N, 11.0500°E)
Time: 00:16:51
(UTC+00:00)

Cosmos 1975 Rocket - Pass Details

Date: 26 May 2022
Orbit: 603 x 633 km, 82.5° (Epoch: 26 June)

Event Time Altitude Azimuth Distance (km) Brightness Sun altitude
Exits shadow 00:39:41 57° 175° (S) 739 3.1 -21.2°
Maximum altitude 00:40:33 82° 98° (E) 638 3.0 -21.2°
Drops below altitude 10° 00:45:02 10° 10° (N) 2,018 6.8 -20.9°
Sets 00:47:18 0° 10° (N) 2,934 7.9 -20.7°
